• Em Portugal
  • Lista de países
  • Para 7 dias
  • Temperatura da água
  • Mapas de satélite
  • Mapa do tempo
  • Widgets de tempo
  • user-avatar
    Iniciar Sessão

    Previsão horária em Selidovo

    Hoje, 16 Outubro, Terça-feira

    Tempo Temperatura Precipitação Vento Pressão Humidade
    00:00 +16°C° 0 mm 2 m/s 755 mmHg 64%
    01:00 +15°C° 0 mm 2 m/s 755 mmHg 66%
    02:00 +15°C° 0 mm 2 m/s 755 mmHg 68%
    03:00 +15°C° 0 mm 2 m/s 755 mmHg 70%
    04:00 +15°C° 0 mm 2 m/s 755 mmHg 72%
    05:00 +14°C° 0 mm 2 m/s 755 mmHg 74%
    06:00 +15°C° 0 mm 2 m/s 755 mmHg 70%
    07:00 +16°C° 0 mm 2 m/s 755 mmHg 66%
    08:00 +18°C° 0 mm 3 m/s 756 mmHg 62%
    09:00 +19°C° 0 mm 3 m/s 756 mmHg 56%
    10:00 +21°C° 0 mm 3 m/s 756 mmHg 49%
    11:00 +24°C° 0 mm 3 m/s 756 mmHg 43%
    12:00 +24°C° 0 mm 3 m/s 755 mmHg 40%
    13:00 +25°C° 0 mm 3 m/s 755 mmHg 37%
    14:00 +25°C° 0 mm 4 m/s 755 mmHg 34%
    15:00 +24°C° 0 mm 3 m/s 755 mmHg 38%
    16:00 +21°C° 0 mm 3 m/s 755 mmHg 42%
    17:00 +20°C° 0 mm 2 m/s 754 mmHg 45%
    18:00 +19°C° 0 mm 2 m/s 754 mmHg 49%
    19:00 +18°C° 0 mm 3 m/s 754 mmHg 52%
    20:00 +17°C° 0 mm 3 m/s 754 mmHg 55%
    21:00 +17°C° 0 mm 2 m/s 754 mmHg 57%
    22:00 +16°C° 0 mm 2 m/s 754 mmHg 59%
    23:00 +16°C° 0 mm 2 m/s 754 mmHg 62%

    Amanhã, 17 Outubro, Quarta-feira

    Tempo Temperatura Precipitação Vento Pressão Humidade
    00:00 +16°C° 0 mm 2 m/s 754 mmHg 64%
    01:00 +15°C° 0 mm 2 m/s 754 mmHg 66%
    02:00 +15°C° 0 mm 2 m/s 754 mmHg 68%
    03:00 +14°C° 0 mm 2 m/s 754 mmHg 70%
    04:00 +14°C° 0 mm 2 m/s 754 mmHg 71%
    05:00 +14°C° 0 mm 2 m/s 754 mmHg 73%
    06:00 +15°C° 0 mm 2 m/s 754 mmHg 68%
    07:00 +16°C° 0 mm 2 m/s 754 mmHg 64%
    08:00 +17°C° 0 mm 3 m/s 754 mmHg 59%
    09:00 +19°C° 0 mm 3 m/s 754 mmHg 52%
    10:00 +21°C° 0 mm 3 m/s 754 mmHg 46%
    11:00 +22°C° 0 mm 4 m/s 754 mmHg 39%
    12:00 +23°C° 0 mm 4 m/s 754 mmHg 37%
    13:00 +23°C° 0 mm 4 m/s 753 mmHg 34%
    14:00 +25°C° 0 mm 4 m/s 753 mmHg 32%
    15:00 +22°C° 0 mm 3 m/s 753 mmHg 36%
    16:00 +21°C° 0 mm 3 m/s 753 mmHg 39%
    17:00 +19°C° 0 mm 3 m/s 752 mmHg 43%
    18:00 +19°C° 0 mm 3 m/s 753 mmHg 45%
    19:00 +18°C° 0 mm 3 m/s 753 mmHg 48%
    20:00 +17°C° 0 mm 3 m/s 753 mmHg 50%
    21:00 +17°C° 0 mm 3 m/s 753 mmHg 51%
    22:00 +16°C° 0 mm 2 m/s 753 mmHg 53%
    23:00 +16°C° 0 mm 2 m/s 752 mmHg 54%

    Depois de amanhã, 18 Outubro, Quinta-feira

    Tempo Temperatura Precipitação Vento Pressão Humidade
    00:00 +15°C° 0 mm 2 m/s 752 mmHg 56%
    01:00 +15°C° 0 mm 2 m/s 752 mmHg 57%
    02:00 +14°C° 0 mm 2 m/s 752 mmHg 58%
    03:00 +14°C° 0 mm 2 m/s 752 mmHg 58%
    04:00 +14°C° 0 mm 2 m/s 752 mmHg 59%
    05:00 +14°C° 0 mm 2 m/s 752 mmHg 60%
    06:00 +14°C° 0 mm 3 m/s 752 mmHg 56%
    07:00 +16°C° 0 mm 3 m/s 752 mmHg 53%
    08:00 +17°C° 0 mm 4 m/s 752 mmHg 49%
    09:00 +19°C° 0 mm 4 m/s 752 mmHg 44%
    10:00 +21°C° 0 mm 4 m/s 752 mmHg 39%
    11:00 +22°C° 0 mm 4 m/s 752 mmHg 34%
    12:00 +23°C° 0 mm 4 m/s 752 mmHg 32%
    13:00 +23°C° 0 mm 4 m/s 751 mmHg 31%
    14:00 +25°C° 0 mm 5 m/s 751 mmHg 30%
    15:00 +22°C° 0 mm 4 m/s 751 mmHg 33%
    16:00 +21°C° 0 mm 4 m/s 750 mmHg 37%
    17:00 +19°C° 0 mm 3 m/s 750 mmHg 40%
    18:00 +19°C° 0 mm 3 m/s 750 mmHg 42%
    19:00 +18°C° 0 mm 3 m/s 750 mmHg 44%
    20:00 +17°C° 0 mm 4 m/s 750 mmHg 45%
    21:00 +17°C° 0 mm 4 m/s 750 mmHg 47%
    22:00 +16°C° 0 mm 3 m/s 750 mmHg 48%
    23:00 +14°C° 0 mm 3 m/s 750 mmHg 50%

    19 Outubro, Sexta-feira

    Tempo Temperatura Precipitação Vento Pressão Humidade
    00:00 +14°C° 0 mm 3 m/s 750 mmHg 51%
    01:00 +14°C° 0 mm 3 m/s 750 mmHg 53%
    02:00 +13°C° 0 mm 3 m/s 750 mmHg 55%
    03:00 +13°C° 0 mm 3 m/s 750 mmHg 56%
    04:00 +12°C° 0 mm 3 m/s 749 mmHg 58%
    05:00 +12°C° 0 mm 3 m/s 749 mmHg 59%
    06:00 +13°C° 0 mm 4 m/s 749 mmHg 57%
    07:00 +14°C° 0 mm 4 m/s 749 mmHg 55%
    08:00 +15°C° 0 mm 5 m/s 749 mmHg 52%
    09:00 +16°C° 0 mm 5 m/s 749 mmHg 48%
    10:00 +19°C° 0 mm 5 m/s 748 mmHg 44%
    11:00 +21°C° 0 mm 5 m/s 748 mmHg 40%
    12:00 +21°C° 0 mm 5 m/s 748 mmHg 38%
    13:00 +22°C° 0 mm 5 m/s 747 mmHg 36%
    14:00 +22°C° 0 mm 5 m/s 747 mmHg 34%
    15:00 +21°C° 0 mm 4 m/s 747 mmHg 38%
    16:00 +19°C° 0 mm 3 m/s 747 mmHg 42%
    17:00 +18°C° 0 mm 2 m/s 747 mmHg 47%
    18:00 +17°C° 0 mm 2 m/s 746 mmHg 50%
    19:00 +17°C° 0 mm 2 m/s 746 mmHg 53%
    20:00 +16°C° 0 mm 2 m/s 746 mmHg 56%
    21:00 +16°C° 0 mm 2 m/s 746 mmHg 59%
    22:00 +16°C° 0 mm 2 m/s 746 mmHg 62%
    23:00 +15°C° 0 mm 2 m/s 745 mmHg 65%

    20 Outubro, Sábado

    Tempo Temperatura Precipitação Vento Pressão Humidade
    00:00 +15°C° 0 mm 2 m/s 745 mmHg 68%
    01:00 +15°C° 0 mm 1 m/s 745 mmHg 71%
    02:00 +14°C° 0 mm 1 m/s 745 mmHg 74%
    03:00 +14°C° 0 mm 1 m/s 745 mmHg 75%
    04:00 +14°C° 0 mm 1 m/s 745 mmHg 77%
    05:00 +14°C° 0 mm 1 m/s 744 mmHg 78%
    06:00 +14°C° 0 mm 1 m/s 745 mmHg 76%
    07:00 +15°C° 0 mm 1 m/s 745 mmHg 73%
    08:00 +16°C° 0 mm 1 m/s 745 mmHg 71%
    09:00 +18°C° 0 mm 1 m/s 745 mmHg 65%
    10:00 +20°C° 0 mm 1 m/s 745 mmHg 59%
    11:00 +21°C° 0 mm 1 m/s 745 mmHg 53%
    12:00 +21°C° 0 mm 2 m/s 745 mmHg 50%
    13:00 +21°C° 0 mm 2 m/s 745 mmHg 47%
    14:00 +23°C° 0 mm 2 m/s 744 mmHg 44%
    15:00 +20°C° 0 mm 2 m/s 744 mmHg 47%
    16:00 +19°C° 0 mm 2 m/s 744 mmHg 51%
    17:00 +19°C° 0 mm 1 m/s 744 mmHg 54%
    18:00 +19°C° 0 mm 1 m/s 744 mmHg 56%
    19:00 +18°C° 0 mm 1 m/s 744 mmHg 59%
    20:00 +16°C° 0 mm 1 m/s 745 mmHg 61%
    21:00 +16°C° 0 mm 1 m/s 744 mmHg 63%
    22:00 +16°C° 0 mm 1 m/s 744 mmHg 65%
    23:00 +15°C° 0 mm 1 m/s 744 mmHg 67%

    21 Outubro, Domingo

    Tempo Temperatura Precipitação Vento Pressão Humidade
    00:00 +15°C° 0 mm 1 m/s 744 mmHg 68%
    01:00 +15°C° 0 mm 1 m/s 744 mmHg 69%
    02:00 +14°C° 0 mm 1 m/s 744 mmHg 71%
    03:00 +14°C° 0 mm 1 m/s 744 mmHg 73%
    04:00 +14°C° 0 mm 1 m/s 745 mmHg 75%
    05:00 +13°C° 0 mm 1 m/s 745 mmHg 78%
    06:00 +14°C° 0 mm 1 m/s 745 mmHg 75%
    07:00 +15°C° 0 mm 1 m/s 745 mmHg 73%
    08:00 +15°C° 0 mm 1 m/s 745 mmHg 70%
    09:00 +16°C° 0 mm 2 m/s 745 mmHg 65%
    10:00 +18°C° 0 mm 2 m/s 745 mmHg 60%
    11:00 +19°C° 0 mm 2 m/s 746 mmHg 55%
    12:00 +19°C° 0 mm 3 m/s 745 mmHg 53%
    13:00 +19°C° 0 mm 3 m/s 745 mmHg 50%
    14:00 +20°C° 0 mm 4 m/s 745 mmHg 48%
    15:00 +19°C° 0 mm 4 m/s 745 mmHg 52%
    16:00 +18°C° 0 mm 3 m/s 746 mmHg 56%
    17:00 +17°C° 0 mm 3 m/s 746 mmHg 59%
    18:00 +16°C° 0 mm 3 m/s 746 mmHg 64%
    19:00 +14°C° 0 mm 3 m/s 746 mmHg 69%
    20:00 +13°C° 0 mm 3 m/s 746 mmHg 74%
    21:00 +12°C° 0 mm 3 m/s 747 mmHg 78%
    22:00 +11°C° 0 mm 3 m/s 747 mmHg 81%
    23:00 +11°C° 0 mm 3 m/s 747 mmHg 84%
    Mostrar mais